Location: Quaker Farms
(41.4276°N, 73.1557°W)
Time: 19:16:09
(UTC+00:00)

S-56A Canister/Altair - Pass Details

Date: 14 June 2021
Orbit: 631 x 2501 km, 38.9° (Epoch: 30 July)

Event Time Altitude Azimuth Distance (km) Brightness Sun altitude
Rises 17:43:05 0° 275° (W) 4,245 11.5 69.1°
Reaches altitude 10° 17:46:27 10° 261° (W) 3,560 11.3 68.7°
Maximum altitude 17:53:09 22° 215° (SW) 3,218 11.5 67.9°
Drops below altitude 10° 18:01:41 10° 171° (S) 4,638 11.9 66.9°
Sets 18:06:59 0° 159° (SSE) 5,895 12.2 66.2°
